This demonstration page uses our WeatherBlox Daily Observations layout. Learn more.

Left ArrowRight Arrow

Hourly Observations for June 24, 2021

Temp ( °F °C ) Dew Point ( °F °C ) Humidity (%) Winds ( mph kmh ) Pressure ( in mb ) Visibility ( mi km ) Precip ( " mm )
12:15 am 00:15 Clear 78 25.7 68 20.2 72 72 SSE 9 15 29.60 1002 10 16 N/A
12:35 am 00:35 Clear 78 25.8 68 20.1 71 71 SSE 7 11 29.60 1002 10 16 N/A
12:55 am 00:55 Clear 79 26 68 20.1 70 70 SSE 7 11 29.60 1002 10 16 N/A
1:15 am 01:15 Clear 78 25.8 68 20.1 71 71 SE 6 9 29.60 1002 10 16 N/A
1:35 am 01:35 Clear 78 25.6 68 20.1 72 72 SSE 6 9 29.59 1002 10 16 N/A
1:55 am 01:55 Clear 78 25.5 68 20.1 72 72 N N/A 29.59 1002 10 16 N/A
2:15 am 02:15 Clear 79 26 68 19.8 69 69 W 3 6 29.61 1003 10 16 N/A
2:35 am 02:35 Clear 78 25.5 68 20 72 72 N 7 11 29.63 1004 10 16 N/A
2:55 am 02:55 Clear 76 24.6 69 20.5 78 78 NNE 13 20 29.66 1004 10 16 N/A
3:15 am 03:15 Clear with Nearby Thunderstorms 76 24.7 68 20.2 76 76 NE 7 11 29.66 1004 10 16 N/A
3:35 am 03:35 Clear with Nearby Thunderstorms 76 24.7 68 20.2 76 76 ENE 9 15 29.66 1004 10 16 N/A
3:55 am 03:55 Clear 77 25 68 20.2 75 75 ENE 16 26 29.67 1005 10 16 N/A
4:15 am 04:15 Clear 74 23.2 65 18.4 75 75 E 21 33 29.69 1005 10 16 N/A
4:35 am 04:35 Clear 71 21.5 64 17.5 78 78 E 17 28 29.70 1006 10 16 N/A
4:55 am 04:55 Clear 70 21 63 17.3 80 80 E 22 35 29.69 1005 10 16 N/A
5:15 am 05:15 Clear 69 20.8 63 17.2 80 80 E 25 41 29.70 1006 10 16 N/A
5:35 am 05:35 Clear 69 20.6 64 17.6 83 83 E 26 43 29.70 1006 10 16 N/A
5:55 am 05:55 Clear 70 21 64 17.5 81 81 ESE 16 26 29.71 1006 10 16 N/A
6:15 am 06:15 Sunny 70 21.1 64 17.5 80 80 ESE 16 26 29.71 1006 10 16 N/A
6:35 am 06:35 Sunny 71 21.5 65 18.2 82 82 ESE 18 30 29.70 1006 10 16 N/A
6:55 am 06:55 Sunny 71 21.5 65 18.2 82 82 ESE 20 31 29.70 1006 10 16 N/A
7:15 am 07:15 Sunny 71 21.5 65 18.5 83 83 ESE 20 31 29.70 1006 10 16 N/A
7:35 am 07:35 Sunny 71 21.6 65 18.5 83 83 ESE 15 24 29.70 1006 10 16 N/A
7:55 am 07:55 Sunny 71 21.7 65 18.5 82 82 ESE 15 24 29.71 1006 10 16 N/A
8:15 am 08:15 Sunny 71 21.8 66 18.8 83 83 SE 13 20 29.72 1007 10 16 N/A
8:35 am 08:35 Sunny 73 22.9 67 19.5 81 81 SE 9 15 29.73 1007 10 16 N/A
8:55 am 08:55 Sunny 74 23.2 68 19.9 82 82 ESE 10 17 29.73 1007 10 16 N/A
9:15 am 09:15 Sunny 76 24.2 68 20.2 78 78 ESE 14 22 29.74 1007 10 16 N/A
9:35 am 09:35 Partly Cloudy 76 24.7 69 20.4 77 77 SE 13 20 29.74 1007 10 16 N/A
9:55 am 09:55 Sunny 77 24.9 69 20.5 77 77 ESE 12 19 29.74 1007 10 16 N/A
10:15 am 10:15 Sunny 77 25 69 20.5 76 76 ESE 13 20 29.74 1007 10 16 N/A
10:35 am 10:35 Partly Cloudy 78 25.3 69 20.8 76 76 ESE 10 17 29.73 1007 10 16 N/A
10:55 am 10:55 Cloudy 77 25 69 20.4 76 76 E 12 19 29.75 1007 10 16 N/A
11:15 am 11:15 Cloudy 77 25 69 20.6 77 77 E 12 19 29.76 1008 10 16 N/A
11:35 am 11:35 Cloudy 77 25.1 69 20.5 76 76 E 12 19 29.77 1008 10 16 N/A
11:55 am 11:55 Cloudy 77 24.8 69 20.5 77 77 NE 10 17 29.78 1008 10 16 N/A
12:15 pm 12:15 Cloudy 77 25 69 20.7 77 77 NE 15 24 29.77 1008 10 16 N/A
12:35 pm 12:35 Cloudy 76 24.2 69 20.5 80 80 NNE 12 19 29.77 1008 10 16 N/A
12:55 pm 12:55 Cloudy 76 24.6 69 20.5 78 78 NE 15 24 29.77 1008 10 16 N/A
1:15 pm 13:15 Cloudy 75 24 69 20.3 80 80 NNE 16 26 29.77 1008 10 16 N/A
1:35 pm 13:35 Cloudy 75 24 68 20.2 79 79 NNE 14 22 29.79 1009 10 16 N/A
1:55 pm 13:55 Cloudy 76 24.2 69 20.3 79 79 NE 12 19 29.78 1009 10 16 N/A
2:15 pm 14:15 Cloudy 75 23.7 68 20 80 80 NNE 8 13 29.82 1010 10 16 N/A
2:35 pm 14:35 Cloudy 74 23.6 68 20.2 81 81 N 6 9 29.82 1010 10 16 N/A
2:55 pm 14:55 Cloudy with Light Rain 74 23.4 69 20.7 85 85 NE 8 13 29.79 1009 7 11 N/A
3:15 pm 15:15 Mostly Cloudy with Light Rain 74 23.5 71 21.6 89 89 NE 12 19 29.78 1008 5 8 N/A
3:35 pm 15:35 Partly Cloudy 76 24.3 71 21.6 85 85 NNE 14 22 29.76 1008 7 11 N/A
3:55 pm 15:55 Partly Cloudy with Nearby Thunderstorms 76 24.5 72 22 86 86 N 12 19 29.76 1008 7 11 N/A
4:15 pm 16:15 Partly Cloudy 77 24.8 71 21.7 83 83 N 15 24 29.74 1007 10 16 N/A
4:35 pm 16:35 Sunny 77 25 71 21.6 81 81 NNE 16 26 29.73 1007 10 16 N/A
4:55 pm 16:55 Sunny 78 25.6 71 21.6 79 79 NE 17 28 29.73 1007 10 16 N/A
5:15 pm 17:15 Sunny 77 25.2 71 21.4 80 80 NE 15 24 29.74 1007 10 16 N/A
5:35 pm 17:35 Sunny 79 26 71 21.7 77 77 NE 13 20 29.72 1006 10 16 N/A
5:55 pm 17:55 Partly Cloudy 79 26 70 21 74 74 ENE 15 24 29.72 1006 10 16 N/A
6:15 pm 18:15 Sunny 78 25.8 69 20.8 74 74 E 14 22 29.71 1006 10 16 N/A
6:35 pm 18:35 Sunny 78 25.8 69 20.3 72 72 ENE 14 22 29.71 1006 10 16 N/A
6:55 pm 18:55 Sunny 79 26.1 67 19.4 67 67 E 15 24 29.71 1006 10 16 N/A
7:15 pm 19:15 Sunny 78 25.4 65 18.3 65 65 E 15 24 29.71 1006 10 16 N/A
7:35 pm 19:35 Partly Cloudy 76 24.6 66 19 71 71 E 8 13 29.73 1007 10 16 N/A
7:55 pm 19:55 Mostly Cloudy 76 24.7 66 19.1 71 71 E 8 13 29.73 1007 10 16 N/A
8:15 pm 20:15 Mostly Cloudy 76 24.2 68 19.8 77 77 E 9 15 29.71 1006 10 16 N/A
8:35 pm 20:35 Sunny 74 23.4 68 20.2 82 82 N 8 13 29.72 1006 10 16 N/A
8:55 pm 20:55 Sunny 73 22.6 69 20.4 87 87 NNE 5 7 29.73 1007 10 16 N/A
9:15 pm 21:15 Clear 72 22.1 69 20.4 90 90 N 5 7 29.73 1007 10 16 N/A
9:35 pm 21:35 Clear 71 21.6 68 20 91 91 NNW 3 6 29.73 1007 10 16 N/A
9:55 pm 21:55 Clear 71 21.5 68 19.8 90 90 N 6 9 29.75 1007 10 16 N/A
10:15 pm 22:15 Clear 72 22 67 19.4 85 85 N 8 13 29.76 1008 10 16 N/A
10:35 pm 22:35 Clear 68 20.2 66 18.7 91 91 N N/A 29.81 1009 10 16 N/A
10:55 pm 22:55 Clear 68 20 66 18.7 92 92 NNE 5 7 29.82 1010 10 16 N/A
11:15 pm 23:15 Clear 67 19.6 65 18.4 93 93 NE 5 7 29.84 1011 10 16 N/A
11:35 pm 23:35 Clear 67 19.3 65 18.5 95 95 NNE 6 9 29.84 1011 7 11 N/A
11:55 pm 23:55 Clear with Mist and Fog 67 19.2 65 18.3 95 95 NNE 6 9 29.84 1011 5 8 N/A

Powered by AerisWeather